Weather History for San Antonio, TX

Change the Weather History Date:

Sunday, January 26, 2014

  Actual Average Record
Temperature  
Mean Temperature 60 °F 52 °F  
Max Temperature 80 °F 64 °F 87 °F (1975)
Min Temperature 40 °F 41 °F 20 °F (1897)
Degree Days  
Heating Degree Days 5 13  
Month to date heating degree days 342 355  
Since 1 July heating degree days 982 957  
Cooling Degree Days 0 0  
Month to date cooling degree days 1 0  
Year to date cooling degree days 1 0  
Growing Degree Days 10 (Base 50)    
Moisture  
Dew Point 40 °F    
Average Humidity 50    
Maximum Humidity 70    
Minimum Humidity 30    
Precipitation  
Precipitation 0.00 in 0.06 in 2.50 in (1992)
Month to date precipitation 0.23 1.46  
Year to date precipitation 0.23 1.46  
Snow  
Snow 0.00 in - - ()
Month to date snowfall 0.1  
Since 1 July snowfall 0.1  
Snow Depth 0.00 in    
Sea Level Pressure  
Sea Level Pressure 29.83 in    
Wind  
Wind Speed 6 mph (SW)    
Max Wind Speed 18 mph    
Max Gust Speed 23 mph    
Visibility 10 miles    
Events      
T = Trace of Precipitation, MM = Missing Value Source: NWS Daily Summary

Daily Weather History Graph

Daily Weather History Graph

Search for Another Location

Airport:

Trip Planner

Search our weather history database for the weather conditions in past years. The results will help you decide how hot, cold, wet, or windy it might be!

Date:

Astronomy

Jan. 26, 2014 Rise Set
Actual Time 7:26 AM CST 6:06 PM CST
Civil Twilight 7:01 AM CST 6:32 PM CST
Nautical Twilight 6:32 AM CST 7:00 PM CST
Astronomical Twilight 6:04 AM CST 7:29 PM CST
Moon 3:03 AM CST (1/26) 1:59 PM CST (1/26)
Length of Visible Light 11h 30m
Length of Day
10h 40m
Waning Crescent, 23% of the Moon is Illuminated
Jan 26
Waning Crescent
Jan 30
New
Feb 6
First Quarter
Feb 14
Full
Feb 22
Last Quarter

Hourly Weather History & Observations

Time (CST) Temp. Windchill Dew Point Humidity Pressure Visibility Wind Dir Wind Speed Gust Speed Precip Events Conditions
12:51 AM 45.0 °F 43.5 °F 34.0 °F 65% 29.99 in 10.0 mi NW 3.5 mph - N/A   Mostly Cloudy
1:51 AM 44.1 °F - 33.1 °F 65% 29.96 in 10.0 mi Calm Calm - N/A   Mostly Cloudy
2:51 AM 42.1 °F - 34.0 °F 73% 29.95 in 10.0 mi Calm Calm - N/A   Mostly Cloudy
3:51 AM 43.0 °F - 33.1 °F 68% 29.94 in 10.0 mi Calm Calm - N/A   Mostly Cloudy
4:51 AM 42.1 °F - 33.1 °F 70% 29.93 in 10.0 mi Calm Calm - N/A   Mostly Cloudy
5:51 AM 41.0 °F 39.0 °F 32.0 °F 70% 29.92 in 10.0 mi NW 3.5 mph - N/A   Partly Cloudy
6:51 AM 43.0 °F - 33.1 °F 68% 29.91 in 10.0 mi Calm Calm - N/A   Partly Cloudy
7:51 AM 45.0 °F - 34.0 °F 65% 29.92 in 10.0 mi Calm Calm - N/A   Partly Cloudy
8:51 AM 50.0 °F - 36.0 °F 59% 29.92 in 10.0 mi SE 3.5 mph - N/A   Partly Cloudy
9:51 AM 60.1 °F - 39.0 °F 46% 29.91 in 10.0 mi WSW 6.9 mph - N/A   Partly Cloudy
10:51 AM 64.0 °F - 39.0 °F 40% 29.90 in 10.0 mi SW 12.7 mph - N/A   Partly Cloudy
11:51 AM 66.9 °F - 39.9 °F 37% 29.86 in 10.0 mi SW 15.0 mph - N/A   Clear
12:51 PM 72.0 °F - 43.0 °F 35% 29.82 in 10.0 mi SW 10.4 mph - N/A   Clear
1:51 PM 75.0 °F - 43.0 °F 32% 29.76 in 10.0 mi SSW 13.8 mph 19.6 mph N/A   Clear
2:51 PM 75.9 °F - 44.1 °F 32% 29.73 in 10.0 mi South 15.0 mph 20.7 mph N/A   Clear
3:51 PM 79.0 °F - 44.1 °F 29% 29.70 in 10.0 mi SSW 11.5 mph - N/A   Clear
4:51 PM 79.0 °F - 45.0 °F 30% 29.70 in 10.0 mi SW 11.5 mph - N/A   Clear
5:51 PM 75.9 °F - 45.0 °F 33% 29.70 in 10.0 mi SSW 8.1 mph - N/A   Clear
6:51 PM 73.0 °F - 46.0 °F 38% 29.71 in 10.0 mi South 5.8 mph - N/A   Clear
7:51 PM 71.1 °F - 46.0 °F 41% 29.72 in 10.0 mi SSW 4.6 mph - N/A   Clear
8:51 PM 62.1 °F - 46.0 °F 56% 29.75 in 10.0 mi WNW 4.6 mph - N/A   Clear
9:51 PM 57.0 °F - 46.0 °F 67% 29.76 in 10.0 mi West 8.1 mph - N/A   Clear
10:51 PM 55.9 °F - 45.0 °F 67% 29.77 in 10.0 mi WNW 5.8 mph - N/A   Clear
11:51 PM 54.0 °F - 44.1 °F 69% 29.77 in 10.0 mi WNW 6.9 mph - N/A   Clear